Regional Weather Roundup
Issued by NWS

Home | Current Version | Previous Version | Text Only | Print | Product List | Glossary Off
Versions: 1 2 3 4 5 6 7 8 9 10 11 12 13 14 15 16 17 18 19 20 21 22 23 24 25 26 27 28 29 30 31 32 33 34 35 36 37 38 39 40 41 42 43 44 45 46 47 48 49 50

000
ASUS43 KMKX 261559
RWRWI

WISCONSIN REGIONAL WEATHER ROUNDUP
NATIONAL WEATHER SERVICE MILWAUKEE/SULLIVAN WI
1000 AM CST MON JAN 26 2015

NOTE: "FAIR" INDICATES FEW OR NO CLOUDS BELOW 12,000 FEET WITH NO
SIGNIFICANT WEATHER AND/OR OBSTRUCTIONS TO VISIBILITY.

WIZ001-002-006>008-014>016-023>028-261700-
NORTHWEST WISCONSIN

CITY           SKY/WX    TMP DP  RH WIND       PRES   REMARKS
SUPERIOR ARPT  LGT SNOW  23  22  96 CALM      29.69R
ASHLAND        CLOUDY    21  18  88 S6        29.70S WCI  13
HAYWARD        LGT SNOW  20  17  88 S7        29.69S VSB 3/4 WCI  11
SIREN          LGT SNOW  26  25  96 S3        29.68S
CUMBERLAND     CLOUDY    23  21  93 SE5       29.69S FOG     WCI  17
RICE LAKE      LGT SNOW  22  21  93 SE7       29.72R WCI  14
CHETEK         CLOUDY    21  20  96 SE6       29.72R FOG     WCI  14
LADYSMITH      CLOUDY    19  17  92 S8        29.73S FOG     WCI   9
EAU CLAIRE     CLOUDY    22  19  89 SE7       29.73S FOG     WCI  13
MENOMONIE      CLOUDY    24  22  93 E3        29.71F FOG
NEW RICHMOND   CLOUDY    29  28  96 SW8       29.68F FOG     WCI  21
OSCEOLA        CLOUDY    30  30 100 S5        29.71F WCI  25
$$

WIZ003>005-009-010-017-018-261700-
NORTH CENTRAL WISCONSIN

CITY           SKY/WX    TMP DP  RH WIND       PRES   REMARKS
MANITOWISH WTR LGT SNOW  14  11  87 S9        29.71R WCI   2
ARBOR VITAE    LGT SNOW  17  12  83 S9        29.72F WCI   5
WOODRUFF       LGT SNOW  17  12  83 S9        29.72F WCI   5
RHINELANDER    LGT SNOW  15  11  83 SE8       29.75R FOG     WCI   4
EAGLE RIVER    LGT SNOW  15  10  80 S6        29.74S WCI   6
LAND O LAKES   LGT SNOW  15  12  86 S7        29.74S VSB 3/4 WCI   5
PHILLIPS       FLURRIES  17  14  88 S9        29.70S WCI   5
TOMAHAWK       LGT SNOW  15  11  85 SE3       29.74F
MEDFORD        LGT SNOW  16  13  88 SE10      29.73F WCI   4
MERRILL        LGT SNOW  16  12  86 S7        29.76F WCI   6
$$

WIZ029-030-035-036-043>047-261700-
CENTRAL WISCONSIN

CITY           SKY/WX    TMP DP  RH WIND       PRES   REMARKS
WAUSAU         LGT SNOW  16  12  84 SE12      29.77F FOG     WCI   3
MOSINEE        LGT SNOW  16  16 100 S8        29.79F WCI   5
MARSHFIELD     LGT SNOW  18  14  84 SE14      29.76F FOG     WCI   4
STEVENS POINT  MIX PCPN  16  13  87 SE8       29.82F WCI   5
WAUPACA        FLURRIES  20  13  73 S5        29.86S WCI  14
WAUTOMA        NOT AVBL
WISC RAPIDS    LGT SNOW  18  13  80 SE8       29.82F WCI   8
CAMP DOUGLAS   NOT AVBL
$$

WIZ011>013-019>022-031-037>040-048>050-261700-
NORTHEAST WISCONSIN

CITY           SKY/WX    TMP DP  RH WIND       PRES   REMARKS
ANTIGO         LGT SNOW  13  10  87 SE10      29.78F WCI   0
SHAWANO        CLOUDY    20  13  75 S3        29.87S
OCONTO         CLOUDY    17  13  85 CALM      29.89F
STURGEON BAY   CLOUDY    21  14  73 S9        29.92R WCI  11
GREEN BAY      CLOUDY    21  15  78 S7        29.89F WCI  12
MANITOWOC      NOT AVBL
APPLETON       CLOUDY    19  12  73 S10       29.87F WCI   8
CLINTONVILLE   CLOUDY    19  12  73 S8        29.86S WCI   9
OSHKOSH        CLOUDY    21  14  74 S9        29.87F WCI  11
$$

WIZ032>034-041-042-053>061-261700-
SOUTHWEST WISCONSIN

CITY           SKY/WX    TMP DP  RH WIND       PRES   REMARKS
LA CROSSE      CLOUDY    24  19  81 S10       29.79F WCI  14
SPARTA         FLURRIES  22  18  85 S5        29.80F WCI  15
VIROQUA        CLOUDY    20  19  93 S13       29.78F WCI   8
BOSCOBEL       CLOUDY    23  17  78 S3        29.86F
PRAIRIE DU CHI CLOUDY    24  19  81 SE7       29.84F WCI  16
PLATTEVILLE    PTSUNNY   19  17  90 SE10      29.86F WCI   8
$$

WIZ056-057-062-063-064-067-068-261700-
SOUTH CENTRAL WISCONSIN

CITY           SKY/WX    TMP DP  RH WIND       PRES   REMARKS
REEDSBURG      LGT SNOW  18  15  88 S7        29.85S VSB 1   WCI   9
BARABOO/DELLS  FLURRIES  18  15  87 S8        29.84S WCI   8
LONE ROCK      NOT AVBL
MINERAL POINT  LGT SNOW  21  18  86 S12       29.84F WCI   9
MADISON        LGT SNOW  19  15  84 S10       29.87F VSB 1   WCI   7
MIDDLETON      CLOUDY    20  16  84 S8        29.87F WCI  11
WATERTOWN      CLOUDY    19  15  84 S7        29.89F WCI  10
MONROE         LGT SNOW  19  18  93 S10       29.87F WCI   8
JANESVILLE     LGT SNOW  19  16  86 SE12      29.90F WCI   7
$$

WIZ051-052-058>065-066-070>072-261700-
SOUTHEAST WISCONSIN

CITY           SKY/WX    TMP DP  RH WIND       PRES   REMARKS
MILWAUKEE      PTSUNNY   24  15  68 S8        29.93F WCI  15
WAUKESHA       MOSUNNY   18  12  79 S7        29.92F WCI   8
MILWAUKEE/TIMM CLOUDY    23  16  74 S6        29.93F WCI  16
RACINE         CLOUDY    24  15  68 SW6       29.95F WCI  17
BURLINGTON     CLOUDY    19  15  84 S3        29.92F
KENOSHA        CLOUDY    24  17  74 S6        29.93F WCI  17
FOND DU LAC    CLOUDY    22  15  75 S13       29.88F WCI  10
SHEBOYGAN      CLOUDY    24  17  74 S9        29.90F WCI  14
WEST BEND      CLOUDY    21  16  79 S8        29.90F WCI  12
JUNEAU         PTSUNNY   20  15  80 S10       29.89F WCI   9
$$

LSZ147-162-261700-
LAKE SUPERIOR

STATION/POSITION TIME  TEMP    WIND        PRES    WAVE
                       AIR SEA DIR/SP/G            HT/PER
                 (UTC) (F)     (DEG/KT/KT) (MB)    (FT/S)
DEVILS ISLAND    1500   21     180/  9/ 11 1007.4R
PORT WING        1500   22     160/  3/  9 1006.1R
SAXON HARBOR     1500   22     190/  4/ 10 1006.1S
$$

LMZ867-665-643>646-261700-
LAKE MICHIGAN

STATION/POSITION TIME  TEMP    WIND        PRES    WAVE
                       AIR SEA DIR/SP/G            HT/PER
                 (UTC) (F)     (DEG/KT/KT) (MB)    (FT/S)
NORTHPORT PIER   1516   21     210/  3/  6 1013.2F
SISTER BAY       1513   23        CALM       N/A
KEWAUNEE LAKESHO 1500   23     200/  9/ 12 1012.4F
SHEBOYGAN LAKESH 1500   22     220/  7/  7 1014.8F
PORT WASHINGTON  1500   25     220/  5/  9 1014.6F
MILWAUKEE LAKESH 1500   24     220/  6/  8   N/A
KENOSHA   LAKESH 1500   22     260/  3/  6 1014.2F
$$

TC  - TEMPERATURE IN CELSIUS
VSB - VISIBILITY IN STATUTE MILES
WCI - WIND CHILL INDEX
HX  - HEAT INDEX




USA.gov is the U.S. government's official web portal to all federal, state and local government web resources and services.